User: anonymous   Login
Location: Seminole
(32.7190°N, 102.6440°W)
Time: 13:14:55
(UTC-06:00)
Language:

Meteor 2-10 - Orbit

View from above orbital plane
View from above orbital plane
View from above satellite
View from above satellite

Ground track
Ground track

The orbit data is extracted from the following two-line orbital elements,

1 14452U 83109A   15058.90718431  .00000125  00000-0  45296-4 0  9997
2 14452 081.1623 204.3881 0089857 298.5365 060.6790 14.26313426629232
Epoch (UTC): 27 February 2015 21:46:20
Eccentricity: 0.0089857
inclination: 81.1623°
perigee height: 739 km
apogee height: 868 km
right ascension of ascending node: 204.3881°
argument of perigee: 298.5365°
revolutions per day: 14.26313426
mean anomaly at epoch: 60.6790°
orbit number at epoch: 62923

The dashed part of the orbit path shows where the satellite is in the earth's shadow,  

DLR